Simultaneous Nadir Overpasses (SNOs) Predictions

Prediction of SNOs between METOP-C and LANDSAT-8 Satellite Orbit:

Table of predicted SNOs for the next 14.0 days since TLE Epoch: 12/31/2021
Index Date (METOP-C) Time (METOP-C) Lat,Lon (METOP-C) SZA (METOP-C ) Date (LANDSAT-8) Time (LANDSAT-8) Lat,Lon (LANDSAT-8) SZA (LANDSAT-8 ) Distance(km) Time Diff (sec)
1 01/01/2022 20:23:15 81.07, -86.96 105.77 01/01/2022 20:24:14 81.08, -86.90 105.80 1.23 59
2 01/01/2022 21:13:53 -81.10, 81.07 74.15 01/01/2022 21:13:40 -81.10, 81.05 74.16 0.47 13
3 01/04/2022 15:57:37 81.08, -20.50 105.47 01/04/2022 15:58:28 81.09, -20.36 105.51 2.61 51
4 01/04/2022 16:48:15 -81.10, 147.58 74.45 01/04/2022 16:47:54 -81.11, 147.60 74.45 0.56 21
5 01/07/2022 11:31:59 81.09, 46.30 105.16 01/07/2022 11:32:43 81.09, 46.15 105.16 2.62 44
6 01/07/2022 12:22:38 -81.11,-145.94 74.80 01/07/2022 12:22:09 -81.11,-145.86 74.80 1.52 29
7 01/10/2022 07:06:22 81.09, 112.70 104.74 01/10/2022 07:06:58 81.09, 112.63 104.75 1.11 36
8 01/10/2022 07:57:02 -81.09, -79.86 75.26 01/10/2022 07:56:25 -81.09, -79.72 75.26 2.41 37
9 01/13/2022 02:40:44 81.09, 179.06 104.26 01/13/2022 02:41:12 81.10, 179.09 104.28 0.90 28



Historial Predications of SNOs between METOP-C and LANDSAT-8
